1507323600.34,36663,11.94,72964.8,-5.63,-6.43,-6.43,0,*56
1507323601.54,36664,11.94,72962.5,-5.63,-6.43,-6.39,0,*5C
1507323602.74,36665,11.94,72960.5,-5.63,-6.39,-6.43,0,*5D
1507323603.94,36666,11.94,72958.3,-5.63,-6.43,-6.39,0,*5E
1507323605.13,36667,12.0,72956.5,-5.63,-6.31,-6.39,0,*5A
1507323606.36,36668,11.94,72958.8,-5.65,-6.47,-6.47,0,*5B
1507323607.55,36669,11.94,72962.8,-5.63,-6.43,-6.39,0,*51
1507323608.75,36670,12.0,72968.3,-5.63,-6.43,-6.39,0,*59
1507323609.95,36671,11.94,72974.5,-5.63,-6.43,-6.43,0,*55
1507323611.15,36672,11.94,72972.8,-5.63,-6.39,-6.43,0,*5B
1507323612.34,36673,12.0,72976.0,-5.63,-6.39,-6.39,0,*57
1507323613.55,36674,11.94,72972.3,-5.63,-6.43,-6.43,0,*50
1507323614.74,36675,11.94,72968.8,-5.63,-6.39,-6.39,0,*51
1507323615.94,36676,11.94,72968.8,-5.63,-6.39,-6.39,0,*52
1507323617.14,36677,12.0,72972.0,-5.63,-6.43,-6.43,0,*53
1507323618.33,36678,11.94,72968.8,-5.63,-6.43,-6.39,0,*51
1507323619.56,36679,11.94,72968.5,-5.65,-6.47,-6.43,0,*5F
1507323620.78,36680,11.94,72968.0,-5.65,-6.43,-6.43,0,*5D
1507323622.0,36681,11.94,72968.8,-5.65,-6.43,-6.43,0,*5C
1507323623.2,36682,11.94,72970.5,-5.63,-6.39,-6.43,0,*54
1507323624.4,36683,12.0,72970.8,-5.63,-6.43,-6.43,0,*58
1507323625.59,36684,12.0,72968.0,-5.63,-6.39,-6.39,0,*5F
1507323626.81,36685,11.94,72970.0,-5.65,-6.47,-6.43,0,*5C
1507323628.01,36686,12.0,72972.3,-5.63,-6.39,-6.39,0,*5D
1507323629.21,36687,12.0,72968.0,-5.63,-6.39,-6.43,0,*51
1507323630.4,36688,12.0,72970.5,-5.63,-6.39,-6.39,0,*53
1507323631.6,36689,11.94,72968.0,-5.63,-6.43,-6.39,0,*5F
1507323632.8,36690,11.94,72970.0,-5.63,-6.39,-6.43,0,*57
1507323634.0,36691,11.94,72970.8,-5.63,-6.39,-6.43,0,*56
1507323635.2,36692,12.0,72974.8,-5.63,-6.43,-6.43,0,*58
1507323636.4,36693,11.94,72974.0,-5.63,-6.43,-6.43,0,*59
1507323637.6,36694,12.0,72974.5,-5.63,-6.39,-6.43,0,*53
1507323638.82,36695,11.94,72974.3,-5.65,-6.47,-6.47,0,*59
1507323640.04,36696,11.94,72968.0,-5.65,-6.47,-6.47,0,*5A
1507323641.26,36697,11.94,72968.3,-5.65,-6.43,-6.43,0,*5B
1507323642.48,36698,11.94,72970.8,-5.65,-6.43,-6.47,0,*50
1507323643.71,36699,11.94,72968.5,-5.65,-6.43,-6.43,0,*55
1507323644.93,36700,11.94,72966.8,-5.65,-6.43,-6.47,0,*50
1507323646.16,36701,12.0,72968.5,-5.65,-6.43,-6.47,0,*51
1507323647.38,36702,12.0,72966.5,-5.65,-6.43,-6.43,0,*56
1507323648.6,36703,11.94,72966.8,-5.65,-6.43,-6.43,0,*57
1507323649.82,36704,11.94,72964.0,-5.65,-6.43,-6.47,0,*54
1507323651.04,36705,11.94,72964.5,-5.65,-6.47,-6.43,0,*55
1507323652.24,36706,11.94,72966.8,-5.63,-6.39,-6.39,0,*54
1507323653.46,36707,12.0,72970.5,-5.65,-6.43,-6.47,0,*57
1507323654.66,36708,11.94,72970.5,-5.63,-6.39,-6.39,0,*5A
1507323655.88,36709,11.94,72970.8,-5.65,-6.43,-6.43,0,*5D
1507323657.1,36710,12.0,72972.5,-5.65,-6.43,-6.43,0,*55
1507323658.3,36711,12.0,72974.0,-5.63,-6.39,-6.39,0,*52
1507323659.52,36712,11.94,72966.0,-5.65,-6.43,-6.47,0,*53
1507323660.74,36713,12.0,72970.3,-5.65,-6.43,-6.43,0,*56
1507323661.97,36714,12.0,72964.5,-5.65,-6.43,-6.43,0,*51
1507323663.19,36715,11.94,72966.3,-5.65,-6.43,-6.43,0,*50
1507323664.41,36716,12.0,72968.0,-5.65,-6.43,-6.43,0,*53
1507323665.61,36717,12.0,72970.8,-5.67,-6.35,-6.43,0,*51
1507323666.84,36718,12.0,72974.0,-5.65,-6.35,-6.35,0,*5D
1507323668.06,36719,12.0,72972.0,-5.65,-6.43,-6.35,0,*5D
1507323669.29,36720,11.94,72970.3,-5.65,-6.47,-6.43,0,*52
1507323670.51,36721,11.94,72968.3,-5.65,-6.43,-6.35,0,*56
1507323671.71,36722,11.94,72970.0,-5.63,-6.39,-6.31,0,*5A
1507323672.94,36723,11.94,72970.5,-5.65,-6.35,-6.35,0,*55
1507323674.16,36724,11.94,72970.0,-5.65,-6.31,-6.43,0,*57
1507323675.39,36725,11.94,72966.8,-5.65,-6.35,-6.43,0,*52
1507323676.61,36726,12.0,72972.8,-5.65,-6.35,-6.43,0,*51
1507323677.84,36727,11.94,72972.5,-5.65,-6.43,-6.43,0,*51
1507323679.06,36728,11.94,72972.5,-5.65,-6.43,-6.43,0,*5E
1507323680.28,36729,11.94,72968.3,-5.65,-6.43,-6.43,0,*5F
1507323681.48,36730,11.94,72976.3,-5.67,-6.47,-6.43,0,*51
1507323682.7,36731,11.94,72976.3,-5.65,-6.47,-6.47,0,*56
1507323683.92,36732,11.94,72974.5,-5.65,-6.43,-6.47,0,*51
1507323685.15,36733,11.94,72968.3,-5.65,-6.43,-6.47,0,*50
1507323686.37,36734,11.94,72972.5,-5.65,-6.43,-6.47,0,*57
1507323687.59,36735,12.0,72978.0,-5.65,-6.47,-6.47,0,*52
1507323688.81,36736,11.94,72978.8,-5.65,-6.43,-6.43,0,*51
1507323690.03,36737,11.94,72972.8,-5.65,-6.47,-6.43,0,*54
1507323691.26,36738,11.94,72978.3,-5.65,-6.43,-6.43,0,*5F
1507323692.48,36739,12.0,72984.8,-5.65,-6.43,-6.43,0,*5E
1507323693.7,36740,11.94,72982.3,-5.65,-6.43,-6.43,0,*50
1507323694.9,36741,11.94,72980.0,-5.67,-6.43,-6.43,0,*53
1507323696.12,36742,11.94,72978.5,-5.65,-6.43,-6.43,0,*52
1507323697.32,36743,11.94,72980.8,-5.67,-6.47,-6.43,0,*55
1507323698.54,36744,12.0,72984.3,-5.65,-6.43,-6.43,0,*54
1507323699.76,36745,11.94,72982.8,-5.65,-6.47,-6.47,0,*55
1507323700.98,36746,12.0,72986.0,-5.65,-6.47,-6.43,0,*52
1507323702.2,36747,11.94,72980.8,-5.65,-6.43,-6.43,0,*57
1507323703.43,36748,11.94,72982.5,-5.65,-6.43,-6.43,0,*58
1507323704.65,36749,11.94,72982.8,-5.65,-6.47,-6.43,0,*5D
1507323705.87,36750,11.94,72982.8,-5.65,-6.43,-6.43,0,*51
1507323707.09,36751,11.94,72982.5,-5.65,-6.43,-6.43,0,*50
1507323708.32,36752,12.0,72980.0,-5.65,-6.43,-6.43,0,*53
1507323709.54,36753,12.0,72978.8,-5.65,-6.43,-6.35,0,*53
1507323710.76,36754,12.0,72976.0,-5.65,-6.47,-6.47,0,*55
1507323711.99,36755,11.94,72972.5,-5.65,-6.35,-6.43,0,*55
1507323713.21,36756,11.94,72972.0,-5.65,-6.47,-6.43,0,*53
1507323714.41,36757,12.0,72976.3,-5.67,-6.43,-6.43,0,*54
1507323715.63,36758,11.94,72976.0,-5.65,-6.43,-6.47,0,*5D
1507323716.82,36759,12.0,72978.0,-5.67,-6.47,-6.43,0,*5E
1507323718.05,36760,11.94,72976.3,-5.65,-6.43,-6.47,0,*56
1507323719.24,36761,11.94,72978.8,-5.67,-6.43,-6.43,0,*51
1507323720.47,36762,11.94,72976.8,-5.65,-6.43,-6.47,0,*54
1507323721.69,36763,12.0,72980.5,-5.65,-6.43,-6.47,0,*55
1507323722.92,36764,11.94,72976.3,-5.65,-6.43,-6.47,0,*52
1507323724.14,36765,11.94,72982.8,-5.65,-6.47,-6.47,0,*57
1507323725.36,36766,11.94,72982.8,-5.65,-6.43,-6.47,0,*50
1507323726.58,36767,12.0,72986.3,-5.65,-6.47,-6.47,0,*55
1507323727.8,36768,11.94,72982.8,-5.65,-6.47,-6.47,0,*5A
1507323729.0,36769,12.0,72980.5,-5.67,-6.47,-6.47,0,*59
1507323730.19,36770,11.94,72978.3,-5.67,-6.47,-6.47,0,*51
1507323731.39,36771,11.94,72976.3,-5.67,-6.47,-6.47,0,*50
1507323732.58,36772,11.94,72978.8,-5.67,-6.47,-6.43,0,*57
1507323733.8,36773,11.94,72976.8,-5.65,-6.47,-6.47,0,*50
1507323735.0,36774,11.94,72976.0,-5.67,-6.47,-6.47,0,*55
1507323736.22,36775,11.94,72980.8,-5.65,-6.47,-6.47,0,*56
1507323737.42,36776,11.94,72982.0,-5.67,-6.47,-6.47,0,*57
1507323738.64,36777,11.94,72980.3,-5.65,-6.47,-6.43,0,*50
1507323739.86,36778,12.0,72984.0,-5.65,-6.43,-6.47,0,*5F
1507323741.08,36779,11.94,72982.8,-5.65,-6.47,-6.47,0,*5A
1507323742.28,36780,11.94,72982.3,-5.67,-6.43,-6.43,0,*5E
1507323743.47,36781,11.94,72982.8,-5.67,-6.47,-6.47,0,*5F
1507323744.67,36782,11.94,72976.8,-5.67,-6.43,-6.47,0,*58
1507323745.89,36783,12.0,72980.0,-5.65,-6.43,-6.51,0,*5C
1507323747.09,36784,11.94,72978.0,-5.67,-6.47,-6.51,0,*5D
1507323748.31,36785,12.0,72982.5,-5.65,-6.47,-6.51,0,*5E
1507323749.53,36786,11.94,72982.3,-5.65,-6.47,-6.47,0,*5A
1507323750.76,36787,11.94,72970.5,-5.65,-6.43,-6.47,0,*5F
1507323751.95,36788,12.0,72972.8,-5.67,-6.47,-6.47,0,*56
1507323753.15,36789,11.94,72968.3,-5.67,-6.47,-6.43,0,*53
1507323754.34,36790,11.94,72974.0,-5.67,-6.47,-6.47,0,*5F
1507323755.56,36791,11.94,72972.0,-5.65,-6.47,-6.51,0,*5B
1507323756.76,36792,11.94,72974.3,-5.67,-6.43,-6.51,0,*5E
1507323757.98,36793,11.94,72978.5,-5.65,-6.47,-6.51,0,*59
1507323759.18,36794,11.94,72982.5,-5.67,-6.47,-6.47,0,*5B
1507323760.38,36795,11.94,72980.3,-5.67,-6.43,-6.47,0,*5E
1507323761.57,36796,11.94,72980.3,-5.67,-6.47,-6.47,0,*59
1507323762.77,36797,12.0,72982.3,-5.67,-6.47,-6.47,0,*58
1507323763.96,36798,11.94,72980.0,-5.67,-6.43,-6.47,0,*53
1507323765.16,36799,11.94,72980.8,-5.67,-6.43,-6.47,0,*52
1507323766.36,36800,12.0,72986.3,-5.67,-6.47,-6.43,0,*5D
1507323767.55,36801,11.94,72984.0,-5.67,-6.43,-6.43,0,*58
1507323768.75,36802,11.94,72976.3,-5.67,-6.47,-6.43,0,*5F
1507323769.95,36803,11.94,72972.5,-5.67,-6.43,-6.47,0,*5E
1507323771.17,36804,11.94,72982.0,-5.69,-6.47,-6.47,0,*53
1507323772.36,36805,11.94,72976.3,-5.67,-6.47,-6.43,0,*58
1507323773.58,36806,11.94,72974.3,-5.69,-6.47,-6.43,0,*55
1507323774.78,36807,11.94,72976.3,-5.67,-6.47,-6.47,0,*5E
1507323775.98,36808,11.94,72968.3,-5.67,-6.43,-6.47,0,*55
1507323777.17,36809,11.94,72970.3,-5.67,-6.47,-6.47,0,*50
1507323778.37,36810,11.94,72972.8,-5.67,-6.43,-6.47,0,*5C
1507323779.59,36811,11.94,72972.5,-5.69,-6.47,-6.47,0,*57
1507323780.81,36812,11.94,72970.8,-5.69,-6.47,-6.47,0,*54
1507323782.03,36813,11.94,72970.5,-5.69,-6.47,-6.47,0,*55
1507323783.23,36814,11.94,72968.5,-5.67,-6.43,-6.47,0,*58
1507323784.45,36815,11.94,72974.3,-5.65,-6.43,-6.47,0,*5B
1507323785.65,36816,11.94,72980.8,-5.67,-6.47,-6.47,0,*5E
1507323786.85,36817,11.94,72982.0,-5.67,-6.43,-6.47,0,*5B
1507323788.05,36818,12.0,72982.5,-5.67,-6.43,-6.47,0,*54
1507323789.24,36819,11.94,72978.3,-5.67,-6.43,-6.47,0,*55
1507323790.44,36820,12.0,72986.0,-5.67,-6.47,-6.47,0,*5B
1507323791.64,36821,12.0,72982.5,-5.67,-6.43,-6.47,0,*5E
1507323792.83,36822,11.94,72978.8,-5.67,-6.47,-6.47,0,*59
1507323794.05,36823,11.94,72978.0,-5.69,-6.43,-6.47,0,*52
1507323795.28,36824,11.94,72976.8,-5.69,-6.47,-6.43,0,*55
1507323796.47,36825,12.0,72980.0,-5.67,-6.47,-6.43,0,*5A
1507323797.69,36826,11.94,72982.0,-5.69,-6.47,-6.51,0,*54
1507323798.92,36827,11.94,72988.5,-5.69,-6.47,-6.51,0,*55
1507323800.14,36828,11.94,72986.8,-5.69,-6.47,-6.51,0,*5A
1507323801.36,36829,11.94,72978.0,-5.69,-6.47,-6.51,0,*5B
1507323802.58,36830,11.94,72978.3,-5.69,-6.47,-6.59,0,*5B
1507323803.78,36831,11.94,72972.3,-5.67,-6.47,-6.51,0,*5C
1507323804.97,36832,11.94,72972.5,-5.67,-6.47,-6.59,0,*57
1507323806.18,36833,11.94,72966.8,-5.71,-6.55,-6.55,0,*5E
1507323807.41,36834,11.94,72970.5,-5.69,-6.51,-6.51,0,*50
1507323808.63,36835,11.94,72970.0,-5.69,-6.59,-6.59,0,*51
1507323809.83,36836,11.94,72964.5,-5.67,-6.51,-6.51,0,*5C
1507323811.06,36837,11.94,72972.8,-5.69,-6.51,-6.59,0,*5B
1507323812.29,36838,11.94,72968.5,-5.69,-6.51,-6.59,0,*54
1507323813.52,36839,11.94,72966.0,-5.69,-6.51,-6.51,0,*5D
1507323814.75,36840,11.94,72964.3,-5.69,-6.51,-6.51,0,*53
1507323815.97,36841,11.94,72962.8,-5.69,-6.51,-6.59,0,*5A
1507323817.2,36842,11.94,72966.3,-5.71,-6.55,-6.63,0,*5D
1507323818.43,36843,11.94,72972.5,-5.69,-6.51,-6.59,0,*58
1507323819.66,36844,11.94,72968.0,-5.71,-6.55,-6.63,0,*5B
1507323820.9,36845,11.94,72970.0,-5.71,-6.63,-6.63,0,*5F
1507323822.13,36846,12.0,72972.5,-5.69,-6.59,-6.59,0,*55
1507323823.35,36847,11.94,72974.0,-5.71,-6.63,-6.55,0,*58
1507323824.55,36848,11.94,72980.3,-5.71,-6.55,-6.55,0,*52
1507323825.75,36849,11.94,72978.8,-5.71,-6.55,-6.55,0,*53
1507323826.96,36850,11.94,72976.8,-5.71,-6.55,-6.55,0,*5B
1507323828.17,36851,11.94,72976.3,-5.71,-6.51,-6.51,0,*5A
1507323829.37,36852,11.94,72980.0,-5.71,-6.55,-6.55,0,*59
1507323830.6,36853,11.94,72980.0,-5.69,-6.51,-6.51,0,*51
1507323831.82,36854,11.94,72980.0,-5.69,-6.51,-6.51,0,*56
1507323833.03,36855,11.94,72982.3,-5.71,-6.55,-6.55,0,*5E
1507323834.23,36856,11.94,72982.5,-5.71,-6.55,-6.55,0,*5D
1507323835.44,36857,11.94,72986.8,-5.71,-6.51,-6.55,0,*58
1507323836.65,36858,11.94,72984.3,-5.71,-6.51,-6.55,0,*57
1507323837.85,36859,11.94,72990.3,-5.71,-6.51,-6.55,0,*56
1507323839.06,36860,11.94,72986.8,-5.71,-6.51,-6.55,0,*5C
1507323840.27,36861,11.94,72982.5,-5.71,-6.51,-6.55,0,*5D
1507323841.47,36862,11.94,72980.5,-5.71,-6.51,-6.55,0,*5E
1507323842.68,36863,11.94,72982.8,-5.71,-6.51,-6.55,0,*5F
1507323843.9,36864,11.94,72976.5,-5.73,-6.55,-6.59,0,*52
1507323845.13,36865,11.94,72974.3,-5.73,-6.51,-6.59,0,*57
1507323846.36,36866,11.94,72970.3,-5.73,-6.55,-6.59,0,*50
1507323847.58,36867,11.94,72964.0,-5.73,-6.55,-6.55,0,*5D
1507323848.8,36868,11.94,72968.0,-5.73,-6.55,-6.55,0,*52
1507323850.03,36869,12.0,72970.8,-5.73,-6.55,-6.55,0,*53
1507323851.23,36870,11.94,72964.0,-5.71,-6.51,-6.51,0,*59
1507323852.46,36871,11.94,72960.0,-5.73,-6.51,-6.55,0,*5E
1507323853.69,36872,11.94,72962.0,-5.73,-6.51,-6.55,0,*5D
1507323854.91,36873,11.94,72958.8,-5.73,-6.55,-6.55,0,*58
1507323856.14,36874,11.94,72960.5,-5.73,-6.55,-6.55,0,*5F
1507323857.34,36875,11.94,72956.8,-5.71,-6.51,-6.47,0,*5B
1507323858.55,36876,11.94,72954.8,-5.71,-6.51,-6.51,0,*5F
1507323859.78,36877,11.94,72958.0,-5.73,-6.55,-6.55,0,*5C
1507323861.0,36878,11.94,72962.5,-5.73,-6.51,-6.55,0,*57
1507323862.23,36879,11.94,72964.5,-5.73,-6.51,-6.55,0,*56
1507323863.45,36880,11.94,72962.0,-5.73,-6.55,-6.55,0,*54
1507323864.68,36881,12.0,72968.8,-5.73,-6.55,-6.55,0,*55
1507323865.9,36882,11.94,72968.8,-5.73,-6.55,-6.55,0,*56
1507323867.13,36883,11.94,72972.3,-5.73,-6.51,-6.51,0,*57
1507323868.35,36884,11.94,72974.8,-5.73,-6.55,-6.55,0,*50
1507323869.58,36885,11.94,72972.0,-5.73,-6.55,-6.55,0,*51
1507323870.8,36886,11.94,72970.8,-5.73,-6.51,-6.55,0,*56
1507323872.03,36887,11.94,72972.3,-5.73,-6.55,-6.55,0,*53
1507323873.25,36888,11.94,72968.8,-5.73,-6.51,-6.55,0,*58
1507323874.48,36889,11.94,72972.5,-5.73,-6.55,-6.55,0,*5D
1507323875.7,36890,12.0,72978.5,-5.73,-6.55,-6.55,0,*55
1507323876.93,36891,11.94,72968.8,-5.73,-6.51,-6.55,0,*50
1507323878.16,36892,11.94,72968.0,-5.73,-6.51,-6.55,0,*53
1507323879.38,36893,11.94,72962.8,-5.73,-6.51,-6.55,0,*52
1507323880.61,36894,11.94,72962.5,-5.73,-6.51,-6.55,0,*55
1507323881.83,36895,11.94,72958.8,-5.73,-6.55,-6.55,0,*50
1507323883.03,36896,11.94,72954.5,-5.75,-6.55,-6.55,0,*55
1507323884.26,36897,11.94,72954.3,-5.73,-6.51,-6.55,0,*56
1507323885.49,36898,11.94,72954.3,-5.73,-6.55,-6.55,0,*5D
1507323886.71,36899,11.94,72956.5,-5.73,-6.55,-6.55,0,*5C
1507323887.94,36900,11.94,72966.5,-5.73,-6.51,-6.55,0,*59
1507323889.16,36901,11.94,72970.3,-5.73,-6.51,-6.55,0,*58
1507323890.39,36902,12.0,72978.0,-5.73,-6.51,-6.55,0,*5B
1507323891.62,36903,11.94,72978.3,-5.73,-6.55,-6.51,0,*5A
1507323892.84,36904,11.94,72972.3,-5.73,-6.55,-6.51,0,*5D
1507323894.07,36905,11.94,72964.8,-5.73,-6.51,-6.55,0,*5C
1507323895.29,36906,11.94,72974.0,-5.73,-6.55,-6.55,0,*5B
1507323896.52,36907,11.94,72968.8,-5.73,-6.51,-6.55,0,*5E
1507323897.72,36908,11.94,72972.5,-5.75,-6.51,-6.55,0,*57
1507323898.92,36909,11.94,72976.3,-5.75,-6.55,-6.51,0,*56
1507323900.15,36910,11.94,72972.8,-5.73,-6.55,-6.55,0,*5C
1507323901.35,36911,11.94,72972.0,-5.71,-6.47,-6.47,0,*5F
1507323902.58,36912,11.94,72970.0,-5.73,-6.51,-6.51,0,*5E
1507323903.81,36913,11.94,72974.3,-5.73,-6.51,-6.51,0,*5F
1507323905.01,36914,11.94,72978.3,-5.71,-6.51,-6.47,0,*5D
1507323906.22,36915,11.94,72978.8,-5.71,-6.51,-6.47,0,*5C
1507323907.44,36916,11.94,72974.8,-5.73,-6.55,-6.55,0,*5A
1507323908.67,36917,11.94,72978.3,-5.73,-6.51,-6.51,0,*5B
1507323909.9,36918,11.94,72978.8,-5.73,-6.55,-6.55,0,*54
1507323911.1,36919,11.94,72972.5,-5.75,-6.51,-6.55,0,*57
1507323912.3,36920,11.94,72972.5,-5.75,-6.55,-6.55,0,*59
1507323913.53,36921,11.94,72972.0,-5.73,-6.51,-6.51,0,*5E
1507323914.76,36922,11.94,72974.3,-5.73,-6.51,-6.55,0,*59
1507323915.96,36923,11.94,72976.0,-5.75,-6.55,-6.55,0,*5A
1507323917.18,36924,11.94,72970.0,-5.73,-6.51,-6.55,0,*5F
1507323918.41,36925,11.94,72968.5,-5.73,-6.55,-6.55,0,*5A
1507323919.63,36926,11.94,72958.0,-5.73,-6.55,-6.55,0,*59
1507323920.86,36927,12.0,72962.8,-5.73,-6.51,-6.59,0,*50
1507323922.07,36928,11.94,72966.3,-5.71,-6.51,-6.51,0,*55
1507323923.29,36929,11.94,72964.5,-5.73,-6.55,-6.55,0,*56
1507323924.51,36930,11.94,72970.5,-5.73,-6.55,-6.55,0,*5E
1507323925.74,36931,11.94,72968.3,-5.73,-6.55,-6.55,0,*5F
1507323926.96,36932,11.94,72966.0,-5.73,-6.55,-6.59,0,*50
1507323928.19,36933,11.94,72966.5,-5.73,-6.55,-6.55,0,*5D
1507323929.41,36934,11.94,72970.5,-5.73,-6.55,-6.55,0,*5A
1507323930.63,36935,11.94,72962.8,-5.73,-6.55,-6.55,0,*5B
1507323931.86,36936,11.94,72960.5,-5.73,-6.55,-6.55,0,*58
1507323933.08,36937,11.94,72942.3,-5.73,-6.55,-6.55,0,*59
1507323934.28,36938,11.94,72928.0,-5.75,-6.55,-6.51,0,*54
1507323935.48,36939,11.94,72936.0,-5.75,-6.55,-6.55,0,*51
1507323936.68,36940,11.94,72936.3,-5.75,-6.55,-6.55,0,*5F
1507323937.91,36941,11.94,72942.3,-5.73,-6.51,-6.55,0,*5C
1507323939.11,36942,11.94,72944.0,-5.75,-6.55,-6.55,0,*5D
1507323940.33,36943,11.94,72946.3,-5.73,-6.55,-6.55,0,*5A
1507323941.54,36944,11.94,72944.0,-5.75,-6.55,-6.55,0,*5B
1507323942.74,36945,11.94,72946.3,-5.75,-6.55,-6.55,0,*5A
1507323943.94,36946,11.94,72954.0,-5.75,-6.51,-6.51,0,*59
1507323945.15,36947,11.94,72954.3,-5.75,-6.51,-6.51,0,*58
1507323946.37,36948,11.94,72956.3,-5.73,-6.55,-6.55,0,*51
1507323947.6,36949,11.94,72952.3,-5.73,-6.51,-6.55,0,*54
1507323948.83,36950,11.94,72952.5,-5.73,-6.51,-6.51,0,*58
1507323950.03,36951,11.94,72966.0,-5.75,-6.55,-6.55,0,*5F
1507323951.25,36952,11.94,72970.3,-5.73,-6.55,-6.55,0,*5A
1507323952.45,36953,11.94,72966.8,-5.75,-6.55,-6.51,0,*59
1507323953.68,36954,11.94,72966.8,-5.73,-6.55,-6.51,0,*58
1507323954.88,36955,11.94,72970.5,-5.75,-6.55,-6.51,0,*5F
1507323956.08,36956,11.94,72972.3,-5.75,-6.55,-6.51,0,*5C
1507323957.28,36957,11.94,72980.8,-5.75,-6.55,-6.55,0,*59
1507323958.48,36958,11.94,72982.8,-5.75,-6.51,-6.51,0,*56
1507323959.69,36959,11.94,72974.3,-5.75,-6.51,-6.51,0,*57
1507323960.89,36960,11.94,72982.3,-5.75,-6.55,-6.55,0,*5D
1507323962.12,36961,11.94,72982.8,-5.73,-6.51,-6.55,0,*5E
1507323963.32,36962,11.94,72976.5,-5.75,-6.55,-6.51,0,*5B
1507323964.52,36963,11.94,72970.5,-5.75,-6.51,-6.51,0,*5E
1507323965.75,36964,11.94,72966.3,-5.73,-6.51,-6.51,0,*5F
1507323966.96,36965,11.94,72966.5,-5.75,-6.51,-6.55,0,*5C
1507323968.16,36966,12.0,72962.8,-5.75,-6.51,-6.55,0,*5F
1507323969.38,36967,11.94,72954.5,-5.73,-6.55,-6.55,0,*5C
1507323970.61,36968,11.94,72952.3,-5.73,-6.51,-6.51,0,*53
1507323971.84,36969,11.94,72950.8,-5.73,-6.55,-6.55,0,*52
1507323973.04,36970,11.94,72954.8,-5.75,-6.55,-6.55,0,*5C
1507323974.26,36971,11.94,72970.0,-5.73,-6.55,-6.55,0,*5B
1507323975.46,36972,11.94,72964.5,-5.75,-6.55,-6.55,0,*5E
1507323976.69,36973,11.94,72964.5,-5.73,-6.51,-6.51,0,*59
1507323977.92,36974,11.94,72968.0,-5.73,-6.51,-6.51,0,*5E
1507323979.12,36975,11.94,72964.3,-5.75,-6.55,-6.55,0,*59
1507323980.34,36976,11.94,72964.5,-5.73,-6.55,-6.55,0,*5C
1507323981.54,36977,11.94,72964.0,-5.75,-6.55,-6.55,0,*5B
1507323982.75,36978,11.94,72964.3,-5.75,-6.51,-6.55,0,*50
1507323983.95,36979,11.94,72970.5,-5.75,-6.55,-6.55,0,*55
1507323985.15,36980,11.94,72966.0,-5.75,-6.51,-6.55,0,*57
1507323986.36,36981,12.0,72972.8,-5.75,-6.51,-6.55,0,*56
1507323987.56,36982,11.94,72970.3,-5.75,-6.55,-6.55,0,*51
1507323988.76,36983,11.94,72968.8,-5.75,-6.51,-6.51,0,*50
1507323989.96,36984,11.94,72968.0,-5.75,-6.51,-6.55,0,*53
1507323991.17,36985,11.94,72968.0,-5.75,-6.51,-6.51,0,*56
1507323992.37,36986,11.94,72962.8,-5.75,-6.55,-6.51,0,*51
1507323993.58,36987,11.94,72958.3,-5.75,-6.51,-6.51,0,*54
1507323994.78,36988,11.94,72954.5,-5.75,-6.51,-6.51,0,*5B
1507323996.01,36989,11.94,72948.0,-5.73,-6.51,-6.55,0,*58
1507323997.21,36990,11.94,72948.3,-5.75,-6.51,-6.43,0,*51
1507323998.41,36991,12.0,72964.8,-5.75,-6.55,-6.51,0,*57
1507323999.62,36992,11.94,72966.8,-5.75,-6.55,-6.51,0,*54
1507324000.82,36993,11.94,72970.5,-5.75,-6.51,-6.51,0,*51
1507324002.03,36994,11.94,72970.8,-5.75,-6.51,-6.51,0,*56
1507324003.23,36995,11.94,72976.5,-5.75,-6.51,-6.51,0,*57
1507324004.43,36996,11.94,72976.3,-5.75,-6.55,-6.51,0,*50
1507324005.64,36997,11.94,72972.0,-5.75,-6.51,-6.51,0,*55
1507324006.86,36998,11.94,72974.5,-5.73,-6.51,-6.55,0,*58
1507324008.07,36999,11.94,72970.3,-5.75,-6.51,-6.55,0,*5F
1507324009.27,37000,11.94,72966.5,-5.75,-6.51,-6.55,0,*57
1507324010.5,37001,11.94,72974.3,-5.73,-6.51,-6.51,0,*54
1507324011.7,37002,11.94,72972.3,-5.75,-6.51,-6.55,0,*55
1507324012.91,37003,11.94,72970.3,-5.75,-6.43,-6.51,0,*53
1507324014.11,37004,11.94,72972.0,-5.75,-6.43,-6.51,0,*54
1507324015.31,37005,11.94,72968.0,-5.75,-6.43,-6.51,0,*55
1507324016.53,37006,11.94,72968.5,-5.73,-6.43,-6.51,0,*50
1507324017.76,37007,11.94,72968.3,-5.77,-6.55,-6.55,0,*56
1507324018.96,37008,11.94,72970.3,-5.75,-6.51,-6.55,0,*5F
1507324020.17,37009,11.94,72970.5,-5.75,-6.51,-6.55,0,*5E
1507324021.39,37010,11.94,72974.5,-5.73,-6.51,-6.55,0,*50
1507324022.6,37011,11.94,72978.5,-5.75,-6.51,-6.55,0,*57
1507324023.8,37012,11.94,72982.0,-5.75,-6.51,-6.55,0,*54
1507324025.03,37013,11.94,72980.3,-5.73,-6.55,-6.51,0,*53
1507324026.23,37014,11.94,72982.5,-5.75,-6.51,-6.43,0,*55
1507324027.44,37015,11.94,72980.5,-5.75,-6.51,-6.51,0,*57
1507324028.64,37016,11.94,72974.3,-5.75,-6.51,-6.51,0,*54
1507324029.86,37017,11.94,72970.3,-5.73,-6.55,-6.55,0,*53
1507324031.07,37018,11.94,72968.8,-5.75,-6.51,-6.55,0,*5E
1507324032.27,37019,11.94,72964.5,-5.75,-6.51,-6.55,0,*5F
1507324033.48,37020,11.94,72970.3,-5.75,-6.51,-6.55,0,*55
1507324034.68,37021,11.94,72966.0,-5.75,-6.51,-6.51,0,*50
1507324035.89,37022,11.94,72966.8,-5.75,-6.51,-6.51,0,*53
1507324037.09,37023,11.94,72966.3,-5.75,-6.51,-6.51,0,*52
1507324038.29,37024,11.94,72962.0,-5.75,-6.55,-6.51,0,*51
1507324039.49,37025,11.94,72960.0,-5.75,-6.55,-6.51,0,*50
1507324040.72,37026,12.0,72968.5,-5.73,-6.55,-6.51,0,*55
1507324041.94,37027,11.94,72972.5,-5.73,-6.55,-6.51,0,*54
1507324043.17,37028,11.94,72974.3,-5.73,-6.55,-6.55,0,*5F
1507324044.37,37029,11.94,72974.5,-5.75,-6.51,-6.55,0,*5C
1507324045.6,37030,11.94,72976.5,-5.77,-6.59,-6.59,0,*52
1507324046.8,37031,11.94,72978.8,-5.75,-6.51,-6.55,0,*55
1507324048.0,37032,11.94,72974.5,-5.75,-6.55,-6.55,0,*52
1507324049.2,37033,11.94,72976.3,-5.75,-6.55,-6.55,0,*53
1507324050.41,37034,11.94,72976.0,-5.75,-6.51,-6.55,0,*50
1507324051.63,37035,11.94,72974.3,-5.73,-6.51,-6.55,0,*57
1507324052.86,37036,11.94,72968.0,-5.77,-6.55,-6.55,0,*54
1507324054.06,37037,11.94,72964.3,-5.75,-6.55,-6.51,0,*53
1507324055.26,37038,11.94,72958.8,-5.75,-6.51,-6.51,0,*58
1507324056.49,37039,11.94,72960.0,-5.73,-6.55,-6.51,0,*5B
1507324057.69,37040,11.94,72956.5,-5.75,-6.55,-6.55,0,*57
1507324058.89,37041,11.94,72954.0,-5.75,-6.51,-6.55,0,*52
1507324060.1,37042,11.94,72944.3,-5.75,-6.51,-6.51,0,*55
1507324061.3,37043,11.94,72946.0,-5.75,-6.55,-6.51,0,*50
1507324062.5,37044,11.94,72958.0,-5.75,-6.51,-6.51,0,*53
1507324063.71,37045,11.94,72972.0,-5.75,-6.55,-6.55,0,*52
1507324064.91,37046,11.94,72980.5,-5.75,-6.51,-6.55,0,*55
1507324066.11,37047,11.94,72974.3,-5.75,-6.55,-6.51,0,*54
1507324067.33,37048,11.94,72966.5,-5.73,-6.55,-6.55,0,*59
1507324068.54,37049,11.94,72958.8,-5.75,-6.51,-6.55,0,*5A
1507324069.74,37050,11.94,72954.5,-5.75,-6.51,-6.51,0,*56
1507324070.95,37051,11.94,72958.3,-5.75,-6.51,-6.55,0,*53
1507324072.15,37052,11.94,72950.0,-5.75,-6.51,-6.55,0,*50
1507324073.35,37053,11.94,72950.8,-5.75,-6.55,-6.51,0,*51
1507324074.56,37054,11.94,72948.0,-5.75,-6.51,-6.51,0,*52
1507324075.76,37055,11.94,72946.0,-5.75,-6.51,-6.51,0,*53
1507324076.96,37056,11.94,72958.0,-5.75,-6.55,-6.55,0,*50
1507324078.17,37057,11.94,72950.5,-5.79,-6.59,-6.55,0,*51
1507324079.39,37058,11.94,72954.8,-5.73,-6.51,-6.55,0,*5C
1507324080.62,37059,11.94,72960.5,-5.73,-6.51,-6.55,0,*5D
1507324081.82,37060,11.94,72956.0,-5.75,-6.51,-6.55,0,*51
1507324083.05,37061,11.94,72962.5,-5.77,-6.59,-6.59,0,*56
1507324084.25,37062,11.94,72964.5,-5.75,-6.55,-6.55,0,*57
1507324085.45,37063,11.94,72970.8,-5.75,-6.51,-6.51,0,*56
1507324086.66,37064,11.94,72964.8,-5.75,-6.55,-6.55,0,*51
1507324087.86,37065,11.94,72960.5,-5.75,-6.51,-6.55,0,*54
1507324089.06,37066,11.94,72960.3,-5.75,-6.55,-6.55,0,*53
1507324090.26,37067,11.94,72950.3,-5.75,-6.51,-6.55,0,*56
1507324091.46,37068,11.94,72954.5,-5.75,-6.55,-6.55,0,*5D
1507324092.66,37069,11.94,72950.3,-5.75,-6.55,-6.55,0,*5C
1507324093.86,37070,11.94,72962.8,-5.75,-6.55,-6.55,0,*54
1507324095.07,37071,11.94,72960.3,-5.75,-6.55,-6.55,0,*55
1507324096.29,37072,11.94,72958.8,-5.77,-6.59,-6.59,0,*54
1507324097.52,37073,11.94,72966.3,-5.77,-6.59,-6.59,0,*55
1507324098.74,37074,11.94,72964.3,-5.77,-6.55,-6.59,0,*5E
1507324099.97,37075,11.94,72966.0,-5.77,-6.59,-6.59,0,*53
1507324101.19,37076,11.94,72964.3,-5.77,-6.59,-6.55,0,*5C
1507324102.44,37077,11.94,72968.0,-5.77,-6.55,-6.63,0,*54